Regional Weather Roundup
Issued by NWS

Home | Current Version | Previous Version | Graphics & Text | Print | Product List | Glossary On
Versions: 1 2 3 4 5 6 7 8 9 10 11 12 13 14 15 16 17 18 19 20 21 22 23 24 25 26 27 28 29 30 31 32 33 34 35 36 37 38 39 40 41 42 43 44 45 46 47 48 49 50
000
ASUS45 KPSR 302300
RWRAZ

PRELIMINARY ARIZONA REGIONAL HOURLY WEATHER ROUNDUP
NATIONAL WEATHER SERVICE PHOENIX AZ
400 PM MST WED JUL 30 2014

NOTE: FAIR INDICATES FEW OR NO CLOUDS BELOW 12,000 FEET WITH NO
SIGNIFICANT WEATHER AND/OR OBSTRUCTIONS TO VISIBILITY.

AZZ001>003-036-310000-
NORTHWEST ARIZONA

CITY           SKY/WX    TMP DP  RH WIND       PRES   REMARKS
KINGMAN        MOSUNNY   98  49  18 SW8       30.01F
$$

AZZ004>008-015-016-018-310000-
NORTH CENTRAL ARIZONA

CITY           SKY/WX    TMP DP  RH WIND       PRES   REMARKS
GRAND CANYON   MOSUNNY   86  44  23 SW12G20   30.26F
WILLIAMS       MOSUNNY   82  46  28 SW9G18    30.34F
PRESCOTT       MOSUNNY   91  43  18 W9G21     30.15F
FLAGSTAFF      MOSUNNY   82  42  24 SW12G18   30.30F
PAYSON         MOSUNNY   91  45  19 W10G16    30.16F
PAGE           MOSUNNY   96  48  19 VRB3      30.03F
$$

AZZ009>014-017-310000-
NORTHEAST ARIZONA

CITY           SKY/WX    TMP DP  RH WIND       PRES   REMARKS
WINSLOW        NOT AVBL
SAINT JOHNS    MOSUNNY   90  43  19 W14       30.15F
WINDOW ROCK    PTSUNNY   88  41  19 VRB7      30.24F
$$

AZZ023-310000-
GREATER PHOENIX AREA

CITY           SKY/WX    TMP DP  RH WIND       PRES   REMARKS
PHOENIX        MOSUNNY  109  49  13 VRB3      29.78F HX 105
BUCKEYE          N/A    108  50  14 S9        29.79F HX 104
GLENDALE       MOSUNNY  109  52  15 S6        29.80F HX 107
DEER VALLEY    SUNNY    105  49  15 SW10G18   29.81F HX 102
SCOTTSDALE     SUNNY    107  50  15 SW3       29.84F HX 104
MESA-GATEWAY   MOSUNNY  108  52  15 N7        29.83F HX 105
CHANDLER       MOSUNNY  109  50  14 W8        29.81F HX 106
$$

AZZ027-028-310000-
SOUTHWEST MARICOPA COUNTY AND PINAL COUNTY

CITY           SKY/WX    TMP DP  RH WIND       PRES   REMARKS
CASA GRANDE    SUNNY    108  54  16 W9G16     29.84F HX 106
$$

AZZ503-504-507>509-310000-
SOUTHEAST ARIZONA

CITY           SKY/WX    TMP DP  RH WIND       PRES   REMARKS
TUCSON         PTSUNNY  102  49  16 VRB5      29.95F
DAVIS-MONTHAN  SUNNY    102  53  19 W13       29.93F
RYAN FIELD       N/A    104  52  17 N13G20    29.93F HX 101
NOGALES        TSTM      73  64  73 S9        30.14R
SIERRA VISTA   PTSUNNY   86  54  32 W12       30.15S
SAFFORD        MOSUNNY  102  47  15 W18G25    29.92F
$$

AZZ020-021-025-026-031-310000-
SOUTHWEST ARIZONA

CITY           SKY/WX    TMP DP  RH WIND       PRES   REMARKS
YUMA           MOSUNNY  112  46  11 SW9       29.74F HX 107
$$

CAZ031-033-041-043-047-048-061-310000-
SOUTHERN CALIFORNIA

CITY           SKY/WX    TMP DP  RH WIND       PRES   REMARKS
DOWNTOWN L.A.  MOSUNNY   84  61  45 VRB6      29.90F
L.A. AIRPORT   PTSUNNY   76  62  62 W13       29.92F
SAN DIEGO      MOSUNNY   79  64  60 W10       29.93F
BURBANK        MOSUNNY   89  55  31 S10       29.91F
ONTARIO        PTSUNNY   96  54  24 W13G22    29.91F
RIVERSIDE      MOSUNNY   96  56  26 W14G21    29.90F
PALM SPRINGS   SUNNY    114  45  10 NW13G23   29.77F HX 109
EL CENTRO NAS  MOSUNNY  113  47  11 SE8       29.72F HX 108
IMPERIAL       PTSUNNY  113  49  12 CALM      29.71F HX 109
BLYTHE           N/A    N/A N/A N/A MISG      29.74F
$$

NVZ020-UTZ003-310000-
SOUTHERN NEVADA-UTAH

CITY           SKY/WX    TMP DP  RH WIND       PRES   REMARKS
LAS VEGAS      NOT AVBL
SALT LAKE CITY PTSUNNY   81  56  42 E7        30.16F
$$

NMZ009-TXZ055-310000-
NEW MEXICO-WEST TEXAS

CITY           SKY/WX    TMP DP  RH WIND       PRES   REMARKS
ALBUQUERQUE    PTSUNNY   88  51  28 VRB3      30.13F
EL PASO        MOSUNNY  100  48  17 N15       29.98F
$$


........................KEY........................
SKY/WX - SKY CONDITION/WEATHER
TMP    - TEMPERATURE IN FAHRENHEIT
DP     - DEW POINT IN FAHRENHEIT
RH     - RELATIVE HUMIDITY IN PERCENT
WIND   - DIRECTION AND SPEED IN MILES PER HOUR (MPH)
VRB    - VARIABLE WIND DIRECTION
PRES   - MEAN SEA LEVEL PRESSURE IN INCHES OF MERCURY
         F - FALLING PRESSURE   R - RISING PRESSURE
         S - STEADY PRESSURE
VSB    - VISIBILITY IN MILES
HX     - HEAT INDEX IN FAHRENHEIT
WCI    - WIND CHILL INDEX IN FAHRENHEIT
TC     - TEMPERATURE IN CELSIUS WHICH IS ALSO KNOWN AS
         TEMPERATURE IN CENTIGRADE
AFB    - AIR FORCE BASE
         LUKE AFB IS LUKE AIR FORCE BASE
         DAVIS-MONTHAN IS DAVIS-MONTHAN AIR FORCE BASE
NAS    - NAVAL AIR STATION
         EL CENTRO NAS IS EL CENTRO NAVAL AIR STATION
N/A    - NOT AVAILABLE


USA.gov is the U.S. government's official web portal to all federal, state and local government web resources and services.